THORNE RIVER AK US current weather conditions

sailwx.info

Wind from 062 at 2 knots gusting 10

Air temperature 3.9° C
Dewpoint 3.5° C

Last reported at 2020-Jan-22 12:54 UTC.
Time now 2020-Jan-22 13:49 UTC

Location: N 55°42' W 132°32'.
View on Google Maps.

See reports from other nearby stations

  
Tides and Currents Weather Stations Pressure Air Temp Water Temp Dewpoint Dewpoint Depression Visibility Wind Speed Wind Dir Waves Ship Positions
date/time (UTC)wind fromknots sea level pressurealtimeterstation pressurevisibilityair tempwater tempwave heightnotes
2020-Jan-22 12:54 062 2 gusting 10 3.9
2020-Jan-22 11:54 102 3 gusting 9 3.9
2020-Jan-22 10:54 112 4 gusting 7 4.4
2020-Jan-22 09:54 093 3 gusting 9 3.9
2020-Jan-22 08:54 116 4 gusting 10 3.9
2020-Jan-22 07:54 025 4 gusting 6 3.3
2020-Jan-22 06:54 013 4 gusting 6 3.3
2020-Jan-22 05:54 080 2 gusting 6 3.3
2020-Jan-22 04:54 063 2 gusting 6 3.3
2020-Jan-22 03:54 017 3 gusting 5 3.3
2020-Jan-22 02:54 013 2 gusting 9 2.8
2020-Jan-22 01:54 039 5 gusting 7 2.8
2020-Jan-22 00:54 037 4 gusting 9 2.8
2020-Jan-21 23:54 017 5 gusting 12 2.8
2020-Jan-21 22:54 016 7 gusting 13 2.8
2020-Jan-21 21:54 007 6 gusting 13 2.8
2020-Jan-21 20:54 358 3 gusting 6 2.2
2020-Jan-21 19:54 147 0 gusting 5 2.2
2020-Jan-21 18:54 023 0 gusting 5 2.2
2020-Jan-21 17:54 142 1 gusting 4 2.2
2020-Jan-21 16:54 026 1 gusting 6 2.8
2020-Jan-21 15:54 021 3 gusting 7 2.8
2020-Jan-21 14:54 339 2 gusting 13 2.2
2020-Jan-21 13:54 011 6 gusting 20 2.2
2020-Jan-21 12:54 007 10 gusting 19 2.8
2020-Jan-21 11:54 010 7 gusting 19 2.8
2020-Jan-21 10:54 005 9 gusting 19 2.8
2020-Jan-21 09:54 011 11 gusting 18 2.8
2020-Jan-21 08:54 013 8 gusting 16 2.2
2020-Jan-21 07:54 002 6 gusting 13 2.2
2020-Jan-21 06:54 022 6 gusting 12 2.2
2020-Jan-21 05:54 016 6 gusting 9 2.8
2020-Jan-21 04:54 014 6 gusting 9 2.8
2020-Jan-21 03:54 022 6 gusting 11 2.8
2020-Jan-21 02:54 023 6 gusting 9 2.8
2020-Jan-21 01:54 029 5 gusting 8 2.8
2020-Jan-21 00:54 002 6 gusting 7 3.3
2020-Jan-20 23:54 015 3 gusting 6 3.3
2020-Jan-20 22:54 019 3 gusting 7 3.9
2020-Jan-20 21:54 358 1 gusting 5 3.3
2020-Jan-20 20:54 049 2 gusting 7 3.3
2020-Jan-20 19:54 142 6 gusting 9 2.8
2020-Jan-20 18:54 140 3 gusting 9 2.8
2020-Jan-20 17:54 153 4 gusting 8 1.7
2020-Jan-20 16:54 109 2 gusting 6 1.7
2020-Jan-20 15:54 042 0 gusting 4 1.7
2020-Jan-20 14:54 357 0 gusting 3 1.1
2020-Jan-20 13:54 134 0 gusting 4 1.7